Regional Weather Roundup
Issued by NWS Little Rock, AR

Home | Current Version | Previous Version | Text Only | Print | Product List | Glossary Off
Versions: 1 2 3 4 5 6 7 8 9 10 11 12 13 14 15 16 17 18 19 20 21 22 23 24 25 26 27 28 29 30 31 32 33 34 35 36 37 38 39 40 41 42 43 44 45 46 47 48 49 50

891
ASUS44 KLZK 112205
RWRLZK

WEATHER ROUNDUP FOR ARKANSAS
NATIONAL WEATHER SERVICE LITTLE ROCK AR
400 PM CST THU FEB 11 2016

NOTE: "FAIR" INDICATES FEW OR NO CLOUDS BELOW 12,000 FEET WITH NO
SIGNIFICANT WEATHER AND/OR OBSTRUCTIONS TO VISIBILITY.

ARZ001-003-010-029-112300-
NORTHWEST ARKANSAS

CITY           SKY/WX    TMP DP  RH WIND       PRES   REMARKS
FAYETTEVILLE   SUNNY     56  29  35 N8        30.12R
FORT SMITH     SUNNY     64  25  22 NE6       30.10S
HARRISON       SUNNY     48  22  35 SE6       30.16R
BENTONVILLE    MOSUNNY   52  23  32 NE5       30.15S
ROGERS         PTSUNNY   51  25  36 NE10      30.15R
SILOAM SPGS    PTSUNNY   54  27  35 N8        30.14R
HIGHFILL       PTSUNNY   54  26  34 N7        30.13R
SPRINGDALE     SUNNY     57  25  28 NE9       30.15R
$$

ARZ004-005-016-112300-
NORTH CENTRAL ARKANSAS

CITY           SKY/WX    TMP DP  RH WIND       PRES   REMARKS
BATESVILLE     SUNNY     46  21  36 E9        30.22R
FLIPPIN        SUNNY     48  18  29 NE6       30.16S
MTN HOME       SUNNY     47  17  30 VRB3      30.17R
$$

ARZ040-041-112300-
WEST CENTRAL ARKANSAS

CITY           SKY/WX    TMP DP  RH WIND       PRES   REMARKS
MENA           SUNNY     68  34  28 NE7       30.08S
MOUNT IDA      SUNNY     59  31  34 VRB5      30.09R
$$

ARZ009-017-025-026-028-112300-
NORTHEAST ARKANSAS

CITY           SKY/WX    TMP DP  RH WIND       PRES   REMARKS
CORNING        FAIR      43  23  45 NE10G17   30.25R
JONESBORO      SUNNY     43  24  47 E16       30.22R
NEWPORT        MOSUNNY   46  23  40 NE12      30.22R
WALNUT RIDGE   SUNNY     43  21  42 E13       30.23R
BLYTHEVILLE    SUNNY     47  24  40 NE16      30.22S
NW BLYTHEVILLE SUNNY     43  25  49 NE10G18   30.22R
$$

ARZ022-023-033-042-044-112300-
CENTRAL ARKANSAS

CITY           SKY/WX    TMP DP  RH WIND       PRES   REMARKS
LITTLE ROCK    PTSUNNY   49  25  39 NE7       30.18S
N LITTLE ROCK  PTSUNNY   51  29  42 E10       30.18S
JACKSONVILLE   MOSUNNY   50  25  37 E10       30.17R
SEARCY         PTSUNNY   48  25  40 NE15      30.21R
HOT SPRINGS    MOSUNNY   56  27  32 E10       30.13S
RUSSELLVILLE   SUNNY     55  25  31 VRB6      30.15R
CLINTON        FAIR      52  23  32 CALM      30.18R
$$

ARZ036-112300-
EAST ARKANSAS

CITY           SKY/WX    TMP DP  RH WIND       PRES   REMARKS
WEST MEMPHIS   SUNNY     50  24  36 NE13      30.17S
$$

ARZ050-053-066-070-073-112300-
SOUTHWEST ARKANSAS

CITY           SKY/WX    TMP DP  RH WIND       PRES   REMARKS
ARKADELPHIA    FAIR      58  33  38 E8        30.14S
CAMDEN         SUNNY     63  32  31 NE7       30.12R
TEXARKANA      SUNNY     71  37  28 N9        30.08R
EL DORADO      SUNNY     72  39  30 NE12      30.08R
DE QUEEN       SUNNY     72  40  31 SE5       30.04F
$$

ARZ056-057-069-112300-
SOUTHEAST ARKANSAS

CITY           SKY/WX    TMP DP  RH WIND       PRES   REMARKS
PINE BLUFF     SUNNY     52  29  41 E12       30.16S
STUTTGART      SUNNY     50  28  43 NE12      30.17S
MONTICELLO     SUNNY     58  33  39 NE10G17   30.14R

$$






USA.gov is the U.S. government's official web portal to all federal, state and local government web resources and services.